Regional Weather Roundup
Issued by NWS Memphis, TN

Home | Current Version | Previous Version | Text Only | Print | Product List | Glossary On
Versions: 1 2 3 4 5 6 7 8 9 10 11 12 13 14 15 16 17 18 19 20 21 22 23 24 25 26 27 28 29 30 31 32 33 34 35 36 37 38 39 40 41 42 43 44 45 46 47 48 49 50
000
ASUS44 KMEG 280510
RWRMEG
MEMPHIS CWA HOURLY WEATHER ROUNDUP
NATIONAL WEATHER SERVICE MEMPHIS TN
1200 AM CDT TUE JUL 28 2015

...WEST TENNESSEE...

CITY           SKY/WX    TMP DP  RH WIND       PRES   REMARKS
MEMPHIS INTL   PTCLDY    85  75  72 S5        29.96F HX  93
NWS MEMPHIS      N/A     82 N/A N/A MISG        N/A
JACKSON        CLEAR     79  76  90 S3        29.97S FOG
LEXINGTON      PTCLDY    79  75  89 CALM      29.97F
DYERSBURG        N/A    N/A N/A N/A MISG        N/A
PARIS          CLEAR     73  73 100 CALM      29.98S


...EASTERN ARKANSAS...

CITY           SKY/WX    TMP DP  RH WIND       PRES   REMARKS
JONESBORO      CLEAR     79  77  94 CALM      29.94S
WEST MEMPHIS   CLEAR     82  79  90 S3        29.95R HX  92
BATESVILLE     CLEAR     82  73  74 CALM      29.95S
NEWPORT        PTCLDY    81  80  96 SE5       29.95S HX  91
WALNUT RIDGE   CLEAR     81  75  83 S5        29.94S
BLYTHEVILLE    CLEAR     83  79  88 CALM      29.95F HX  94
SEARCY         CLEAR     77  76  96 CALM      29.96S
STUTTGART      CLEAR     84  75  74 CALM      29.95S HX  92
PINE BLUFF     CLEAR     82  76  81 CALM      29.95S
MONTICELLO     CLEAR     83  75  77 S3        29.96R HX  90


...NORTH MISSISSIPPI...

CITY           SKY/WX    TMP DP  RH WIND       PRES   REMARKS
TUPELO         CLEAR     81  77  88 CALM      29.97S
OLIVE BRANCH     N/A     81  79  94 CALM      29.97F
TUNICA         CLEAR     81  77  89 S6        29.96F
CLARKSDALE     CLEAR     81  81 100 CALM      29.97S HX  91
CORINTH        CLEAR     79  75  89 CALM      29.97F
GREENWOOD      CLEAR     78  74  87 CALM      29.96S
COLUMBUS       CLEAR     78  75  90 CALM      29.97R
STARKVILLE     MOCLDY    75  73  94 CALM      29.98S
GOLDEN TRIANGL CLEAR     79  72  78 CALM      29.97R


...SOUTHEAST MISSOURI...

CITY           SKY/WX    TMP DP  RH WIND       PRES   REMARKS
WEST PLAINS    PTCLDY    78  72  81 S3        29.99F
POPLAR BLUFF   MOCLDY    81  79  94 CALM      29.94S FOG     HX  90
CAPE GIRARDEAU CLOUDY    77  74  90 SE6       29.95F


...NORTHWEST ALABAMA...

CITY           SKY/WX    TMP DP  RH WIND       PRES   REMARKS
MUSCLE SHOALS  CLEAR     78  75  90 SE3       30.00S


...MIDDLE TENNESSEE...

CITY           SKY/WX    TMP DP  RH WIND       PRES   REMARKS
NASHVILLE      MOCLDY    81  76  84 CALM      29.98F
CLARKSVILLE    CLOUDY    78  73  84 CALM      29.97F
COLUMBIA       CLEAR     79  79 100 S3        29.98F


...WESTERN KENTUCKY...

CITY           SKY/WX    TMP DP  RH WIND       PRES   REMARKS
PADUCAH        CLOUDY    78  74  87 CALM      29.95F
FORT CAMPBELL  CLOUDY    78  73  86 N2        29.97S


...CENTRAL ARKANSAS...

CITY           SKY/WX    TMP DP  RH WIND       PRES   REMARKS
LITTLE ROCK    CLEAR     84  76  76 S5        29.95R HX  93


SKY/WX REPORTED AS FAIR MEANS FEW OR NO CLOUDS BELOW
12 THOUSAND FEET.



USA.gov is the U.S. government's official web portal to all federal, state and local government web resources and services.